This is the latest recevied weather packets stored in our database for station/object KD9IXX-13. If no packets are shown the sender has not sent any weather packets the latest 1 day(s).
| Time | Temp. | Humidity | Pressure | Rain* | Wind** | Luminosity | Snow |
|---|---|---|---|---|---|---|---|
| 1778111402 | 11.11° C | 46% | 1015.7 hPa | 0 mm | - | 41 W/m² | - |
| 1778110502 | 12.22° C | 44% | 1015.6 hPa | 0 mm | - | 62 W/m² | - |
| 1778106303 | 12.78° C | 42% | 1015.4 hPa | 0 mm | - | 185 W/m² | - |
| 1778106002 | 12.78° C | 42% | 1015.3 hPa | 0 mm | - | 217 W/m² | - |
| 1778104202 | 13.33° C | 41% | 1015.2 hPa | 0 mm | - | 333 W/m² | - |
| 1778102702 | 13.89° C | 41% | 1015 hPa | 0 mm | - | 433 W/m² | - |
| 1778102403 | 13.89° C | 38% | 1014.8 hPa | 0 mm | - | 285 W/m² | - |
| 1778101503 | 13.33° C | 42% | 1015.3 hPa | 0 mm | - | 515 W/m² | - |
| 1778101202 | 13.89° C | 42% | 1015.2 hPa | 0 mm | - | 246 W/m² | - |
| 1778100902 | 13.33° C | 41% | 1015.1 hPa | 0 mm | - | 567 W/m² | - |
| 1778099702 | 13.33° C | 42% | 1015 hPa | 0 mm | - | 630 W/m² | - |
| 1778098803 | 13.89° C | 44% | 1015.2 hPa | 0 mm | - | 556 W/m² | - |
| 1778098502 | 13.33° C | 43% | 1015.6 hPa | 0 mm | - | 299 W/m² | - |
| 1778097302 | 13.89° C | 49% | 1015.8 hPa | 0 mm | - | 527 W/m² | - |
| 1778096402 | 12.78° C | 48% | 1015.9 hPa | 0 mm | - | 651 W/m² | - |
| 1778095202 | 12.22° C | 46% | 1015.9 hPa | 0 mm | - | 376 W/m² | - |
| 1778093703 | 12.22° C | 47% | 1016.1 hPa | 0 mm | - | 260 W/m² | - |
| 1778093403 | 12.22° C | 47% | 1015.8 hPa | 0 mm | - | 283 W/m² | - |
| 1778093102 | 12.22° C | 48% | 1016 hPa | 0 mm | - | 257 W/m² | - |
| 1778090102 | 12.78° C | 50% | 1016 hPa | 0 mm | - | 334 W/m² | - |
| 1778089503 | 12.78° C | 44% | 1016.2 hPa | 0 mm | - | 447 W/m² | - |
| 1778088902 | 13.33° C | 46% | 1016.1 hPa | 0 mm | - | 605 W/m² | - |
| 1778086502 | 12.78° C | 42% | 1016.1 hPa | 0 mm | - | 555 W/m² | - |
| 1778085602 | 12.78° C | 45% | 1016 hPa | 0 mm | - | 442 W/m² | - |
| 1778082902 | 12.22° C | 46% | 1015.9 hPa | 0 mm | - | 356 W/m² | - |
* Rain latest hour (hover to see other rain measurements)
** Current wind speed in m/s (hover to see current wind gust speed)